Showing default

ALISIO-1, 58562

Orbit data source: Space-Track

ALISIO-1, 58562 is a payload satellite owned by IAC (ES) in SSO that was launched on Fri, 01 Dec 2023 UTC via an FALCON 9 launch vehicle from the Air Force Western Test Range (AFWTR). Payload-class satellites include a variety of spacecraft equipped with specific instruments for various scientific and technological missions. These include communications satellites like Starlink; space stations such as the ISS; scientific satellites like the Hubble; Earth observation satellites from companies like Planet Labs, Umbra, and HawkEye 360; GPS; miniature CubeSats for education and research; and military/defense satellites.

Loading next visibility...
Identifier
58562, 2023-185M
Orbit
SSO
Country
Flag of ESES / SPN
Related business
Manufacturer
IAC
Mission
Operational Amateur Imaging
Bus & Motor
CUBESAT 6U, Unknown motor
Mass
10 kg wet, 10 kg dry
Launch date (UTC)
2023-12-01 (2 years ago)
Launch vehicle
FALCON 9
Launch site
Air Force Western Test Range (AFWTR)
Object type
Payload
Rocket body
Debris
Shape & HBR
Box, 0.1 m
Radar Cross Section
0.080 m², Medium (>0.1 m² and < 1m²)

Expand to show TLE details & history
Last TLE update: 15 hours ago

TLE from 15 hours ago
0 ALISIO-1
1 58562U 23185M   25261.26404140  .00003744  00000-0  21107-3 0  9994
2 58562  97.5701 331.1574 0007067 166.1610 193.9817 15.13785215 97363
Epoch: 2025-09-18T06:20Z
TLE epoch observation values (Epoch: 2025-09-18T06:20:13.176Z)
Latitude
0.00002°
Longitude
-121.32564°
Altitude
532.481 km
Speed
7.594 km/s
True Right ascension
22h 04m 37s
True Declination
0° 00' 00"
Sunlit
Object was in full shadow at epoch
Visualization orbit readout
Latitude
Unknown
Longitude
Unknown
Altitude
Unknown
Speed
Unknown
Apparent Right ascension
Unknown
Apparent Declination
Unknown
Sunlit
N/A
Visualization observer readout
Local Sidereal Time
13:52:15
Azimuth
Unknown
Elevation
Unknown
Doppler factor
Unknown
Orbital elements
Apogee altitude
526.526 km
Perigee altitude
516.774 km
Semi-major axis
6,899.787 km
Eccentricity
0.00071
Inclination
97.5701°
RAAN
331.1574°
Arg. of periapsis
166.161°
True anomaly
193.96215°
Mean anomaly
193.9817°
Eccentric anomaly
193.97192°
Mean motion
3.78695 °/min
Orbital period
95.06 mins
BSTAR
0.00021107
Loading maneuver chart data...
Computing Atmospheric mass density...
Loading historical data...
Loading historical data...
Loading historical data...
Loading historical data...
Loading historical data...
Loading historical data...
Loading historical data...

Documentation

Showing up to 5 results
|